• In Russia
  • List of Countries
  • For 7 days
  • Water Temperature
  • Satellite Maps
  • Weather Map
  • Weather Widgets
  • user-avatar
    Login

    Hourly Weather Innsbruck

    Today, 20 August, Sunday

    Time Temperature Precipitation Wind Pressure Humidity
    00:00 +4°C° 0.1 mm 2 mps 598 mmHg 95%
    01:00 +4°C° 0.1 mm 2 mps 598 mmHg 95%
    02:00 +3°C° 0 mm 2 mps 598 mmHg 96%
    03:00 +3°C° 0 mm 2 mps 598 mmHg 96%
    04:00 +2°C° 0 mm 2 mps 598 mmHg 96%
    05:00 +3°C° 0.1 mm 2 mps 598 mmHg 95%
    06:00 +3°C° 0.1 mm 2 mps 599 mmHg 93%
    07:00 +4°C° 0.1 mm 2 mps 599 mmHg 92%
    08:00 +5°C° 0.1 mm 2 mps 600 mmHg 86%
    09:00 +6°C° 0.1 mm 2 mps 600 mmHg 80%
    10:00 +8°C° 0.1 mm 2 mps 601 mmHg 73%
    11:00 +9°C° 0.1 mm 2 mps 601 mmHg 69%
    12:00 +9°C° 0.1 mm 2 mps 601 mmHg 64%
    13:00 +10°C° 0.1 mm 2 mps 602 mmHg 60%
    14:00 +10°C° 0.1 mm 2 mps 602 mmHg 59%
    15:00 +10°C° 0.1 mm 2 mps 602 mmHg 59%
    16:00 +12°C° 0.1 mm 2 mps 602 mmHg 58%
    17:00 +9°C° 0.1 mm 2 mps 601 mmHg 67%
    18:00 +7°C° 0.1 mm 2 mps 601 mmHg 76%
    19:00 +6°C° 0.1 mm 2 mps 600 mmHg 84%
    20:00 +6°C° 0 mm 1 mps 600 mmHg 87%
    21:00 +5°C° 0 mm 1 mps 600 mmHg 90%
    22:00 +4°C° 0 mm 1 mps 600 mmHg 93%
    23:00 +4°C° 0 mm 1 mps 600 mmHg 94%

    Tomorrow, 21 August, Monday

    Time Temperature Precipitation Wind Pressure Humidity
    00:00 +3°C° 0 mm 1 mps 600 mmHg 94%
    01:00 +3°C° 0 mm 1 mps 600 mmHg 94%
    02:00 +3°C° 0 mm 1 mps 599 mmHg 93%
    03:00 +2°C° 0 mm 1 mps 599 mmHg 93%
    04:00 +2°C° 0 mm 1 mps 599 mmHg 92%
    05:00 +3°C° 0 mm 1 mps 599 mmHg 86%
    06:00 +4°C° 0 mm 1 mps 600 mmHg 81%
    07:00 +5°C° 0 mm 1 mps 600 mmHg 75%
    08:00 +8°C° 0 mm 1 mps 601 mmHg 65%
    09:00 +10°C° 0 mm 1 mps 602 mmHg 55%
    10:00 +12°C° 0 mm 2 mps 603 mmHg 44%
    11:00 +13°C° 0 mm 2 mps 603 mmHg 43%
    12:00 +14°C° 0 mm 2 mps 603 mmHg 41%
    13:00 +14°C° 0 mm 2 mps 603 mmHg 39%
    14:00 +14°C° 0 mm 2 mps 603 mmHg 43%
    15:00 +13°C° 0 mm 2 mps 602 mmHg 46%
    16:00 +12°C° 0 mm 3 mps 602 mmHg 50%
    17:00 +12°C° 0 mm 2 mps 602 mmHg 59%
    18:00 +9°C° 0 mm 2 mps 601 mmHg 69%
    19:00 +7°C° 0 mm 2 mps 601 mmHg 78%
    20:00 +7°C° 0 mm 1 mps 600 mmHg 83%
    21:00 +6°C° 0 mm 1 mps 600 mmHg 88%
    22:00 +5°C° 0 mm 1 mps 600 mmHg 93%
    23:00 +5°C° 0 mm 1 mps 600 mmHg 93%

    Day after tomorrow, 22 August, Tuesday

    Time Temperature Precipitation Wind Pressure Humidity
    00:00 +4°C° 0 mm 1 mps 599 mmHg 93%
    01:00 +3°C° 0 mm 1 mps 599 mmHg 93%
    02:00 +3°C° 0 mm 1 mps 599 mmHg 92%
    03:00 +3°C° 0 mm 1 mps 599 mmHg 90%
    04:00 +3°C° 0 mm 1 mps 598 mmHg 89%
    05:00 +4°C° 0 mm 1 mps 599 mmHg 83%
    06:00 +6°C° 0 mm 1 mps 600 mmHg 78%
    07:00 +7°C° 0 mm 0 mps 601 mmHg 72%
    08:00 +10°C° 0 mm 1 mps 601 mmHg 64%
    09:00 +12°C° 0 mm 1 mps 602 mmHg 57%
    10:00 +14°C° 0 mm 1 mps 603 mmHg 49%
    11:00 +15°C° 0 mm 1 mps 603 mmHg 47%
    12:00 +16°C° 0 mm 1 mps 603 mmHg 45%
    13:00 +18°C° 0 mm 1 mps 603 mmHg 43%
    14:00 +17°C° 0 mm 2 mps 603 mmHg 45%
    15:00 +17°C° 0 mm 2 mps 603 mmHg 48%
    16:00 +16°C° 0 mm 2 mps 602 mmHg 50%
    17:00 +14°C° 0 mm 2 mps 601 mmHg 62%
    18:00 +12°C° 0 mm 1 mps 600 mmHg 73%
    19:00 +10°C° 0 mm 1 mps 600 mmHg 85%
    20:00 +9°C° 0 mm 1 mps 599 mmHg 88%
    21:00 +7°C° 0 mm 1 mps 599 mmHg 91%
    22:00 +6°C° 0 mm 1 mps 599 mmHg 94%
    23:00 +6°C° 0 mm 1 mps 598 mmHg 94%

    23 August, Wednesday

    Time Temperature Precipitation Wind Pressure Humidity
    00:00 +6°C° 0 mm 1 mps 598 mmHg 93%
    01:00 +6°C° 0 mm 1 mps 598 mmHg 93%
    02:00 +6°C° 0 mm 1 mps 598 mmHg 92%
    03:00 +6°C° 0 mm 1 mps 598 mmHg 90%
    04:00 +5°C° 0 mm 1 mps 598 mmHg 89%
    05:00 +7°C° 0 mm 1 mps 598 mmHg 84%
    06:00 +8°C° 0 mm 1 mps 599 mmHg 78%
    07:00 +10°C° 0 mm 1 mps 600 mmHg 72%
    08:00 +13°C° 0 mm 1 mps 601 mmHg 62%
    09:00 +15°C° 0 mm 1 mps 602 mmHg 52%
    10:00 +19°C° 0 mm 1 mps 603 mmHg 41%
    11:00 +19°C° 0 mm 1 mps 604 mmHg 39%
    12:00 +20°C° 0 mm 1 mps 604 mmHg 37%
    13:00 +21°C° 0 mm 1 mps 604 mmHg 35%
    14:00 +20°C° 0 mm 2 mps 604 mmHg 37%
    15:00 +19°C° 0 mm 2 mps 603 mmHg 39%
    16:00 +19°C° 0 mm 2 mps 603 mmHg 41%
    17:00 +16°C° 0 mm 1 mps 602 mmHg 54%
    18:00 +14°C° 0 mm 1 mps 601 mmHg 66%
    19:00 +11°C° 0 mm 1 mps 600 mmHg 79%
    20:00 +10°C° 0 mm 1 mps 600 mmHg 81%
    21:00 +9°C° 0 mm 1 mps 600 mmHg 82%
    22:00 +9°C° 0 mm 1 mps 600 mmHg 83%
    23:00 +8°C° 0 mm 1 mps 600 mmHg 82%

    24 August, Thursday

    Time Temperature Precipitation Wind Pressure Humidity
    00:00 +8°C° 0 mm 1 mps 600 mmHg 81%
    01:00 +8°C° 0 mm 1 mps 600 mmHg 79%
    02:00 +8°C° 0 mm 1 mps 600 mmHg 78%
    03:00 +8°C° 0 mm 1 mps 599 mmHg 77%
    04:00 +8°C° 0 mm 1 mps 599 mmHg 76%
    05:00 +9°C° 0 mm 1 mps 600 mmHg 73%
    06:00 +10°C° 0 mm 1 mps 601 mmHg 70%
    07:00 +12°C° 0 mm 1 mps 602 mmHg 67%
    08:00 +14°C° 0 mm 1 mps 603 mmHg 59%
    09:00 +16°C° 0 mm 1 mps 604 mmHg 51%
    10:00 +19°C° 0 mm 1 mps 605 mmHg 43%
    11:00 +20°C° 0 mm 1 mps 605 mmHg 43%
    12:00 +20°C° 0 mm 1 mps 605 mmHg 43%
    13:00 +20°C° 0 mm 1 mps 605 mmHg 43%
    14:00 +20°C° 0.5 mm 1 mps 604 mmHg 49%
    15:00 +19°C° 0.5 mm 1 mps 604 mmHg 54%
    16:00 +18°C° 0.5 mm 1 mps 603 mmHg 60%
    17:00 +16°C° 0.4 mm 1 mps 603 mmHg 67%
    18:00 +14°C° 0.4 mm 1 mps 602 mmHg 74%
    19:00 +12°C° 0.4 mm 1 mps 602 mmHg 81%
    20:00 +12°C° 0.1 mm 1 mps 602 mmHg 81%
    21:00 +11°C° 0.1 mm 1 mps 602 mmHg 82%
    22:00 +11°C° 0.1 mm 1 mps 602 mmHg 83%
    23:00 +9°C° 0 mm 2 mps 601 mmHg 83%

    25 August, Friday

    Time Temperature Precipitation Wind Pressure Humidity
    00:00 +9°C° 0 mm 2 mps 601 mmHg 83%
    01:00 +9°C° 0 mm 2 mps 601 mmHg 83%
    02:00 +8°C° 0 mm 2 mps 601 mmHg 83%
    03:00 +8°C° 0 mm 2 mps 601 mmHg 83%
    04:00 +8°C° 0 mm 2 mps 601 mmHg 83%
    05:00 +9°C° 0 mm 2 mps 601 mmHg 81%
    06:00 +10°C° 0 mm 2 mps 602 mmHg 78%
    07:00 +12°C° 0 mm 2 mps 602 mmHg 76%
    08:00 +14°C° 0 mm 1 mps 603 mmHg 66%
    09:00 +18°C° 0 mm 1 mps 604 mmHg 56%
    10:00 +21°C° 0 mm 1 mps 605 mmHg 47%
    11:00 +21°C° 0.1 mm 1 mps 606 mmHg 44%
    12:00 +22°C° 0.1 mm 1 mps 606 mmHg 42%
    13:00 +23°C° 0.1 mm 1 mps 606 mmHg 40%
    14:00 +22°C° 0.3 mm 1 mps 605 mmHg 42%
    15:00 +22°C° 0.3 mm 1 mps 605 mmHg 45%
    16:00 +21°C° 0.3 mm 1 mps 605 mmHg 48%
    17:00 +19°C° 0.8 mm 1 mps 604 mmHg 59%
    18:00 +16°C° 0.8 mm 1 mps 603 mmHg 71%
    19:00 +14°C° 0.8 mm 1 mps 602 mmHg 83%
    20:00 +13°C° 0.8 mm 1 mps 602 mmHg 84%
    21:00 +12°C° 0.8 mm 1 mps 602 mmHg 86%
    22:00 +12°C° 0.8 mm 2 mps 602 mmHg 87%
    23:00 +10°C° 0.2 mm 2 mps 602 mmHg 87%
    Show more